Regional Weather Roundup
Issued by NWS

Home | Current Version | Previous Version | Graphics & Text | Print | Product List | Glossary Off
Versions: 1 2 3 4 5 6 7 8 9 10 11 12 13 14 15 16 17 18 19 20 21 22 23 24 25 26 27 28 29 30 31 32 33 34 35 36 37 38 39 40 41 42 43 44 45 46 47 48 49 50

000
ASUS45 KBOU 251507
RWRCO

WEATHER ROUNDUP FOR COLORADO
NATIONAL WEATHER SERVICE DENVER/BOULDER CO
900 AM MDT THU MAY 25 2017

NOTE: "FAIR" INDICATES FEW OR NO CLOUDS BELOW 12000 FEET WITH NO
SIGNIFICANT WEATHER AND/OR OBSTRUCTIONS TO VISIBILITY.

COZ001>005-013-030-031-251600-
...NORTHWEST COLORADO...

CITY           SKY/WX    TMP DP  RH WIND       PRES   REMARKS
CRAIG          PTSUNNY   50  39  66 W3        29.77R
HAYDEN         FAIR      48  37  66 S10       29.76S
MEEKER         LGT RAIN  59  40  49 NW8       29.71R
RABBIT EARS PA CLOUDY    36  34  93 SW8       29.91S
STEAMBOAT SPGS CLOUDY    51  43  72 CALM      29.76F
WALDEN           N/A     50  36  57 W5        29.81R
$$

COZ006>008-011-251600-
...WEST CENTRAL VALLEYS...

CITY           SKY/WX    TMP DP  RH WIND       PRES   REMARKS
GRAND JUNCTION FAIR      71  37  28 SE5       29.61R
MONTROSE       FAIR      70  23  17 SW15G32   29.68F
EAGLE          SUNNY     61  37  41 N13G26    29.73S
RIFLE          FAIR      66  37  34 S9        29.65F
DELTA          FAIR      70  31  24 E5        29.66S
NUCLA          FAIR      66  19  16 S10G24    29.76R
$$

COZ017>023-064>068-251600-
...SOUTHWEST COLORADO...

CITY           SKY/WX    TMP DP  RH WIND       PRES   REMARKS
DURANGO        FAIR      64  23  21 SW6       29.85S
CORTEZ         FAIR      68  25  19 S8        29.79R
PAGOSA SPRINGS FAIR      60  23  24 CALM      29.92S
TELLURIDE      PTSUNNY   57  15  19 SW17G26   29.95S
WOLF CREEK PAS FAIR      39  21  48 S16G28    30.15R
$$

COZ009-010-012-014-032>034-037-058>063-251600-
...CENTRAL COLORADO...

CITY           SKY/WX    TMP DP  RH WIND       PRES   REMARKS
ASPEN          FAIR      58  31  35 SE10      29.77F
BUENA VISTA    FAIR      63  21  20 SW20G30   29.80F
COPPER MTN     FAIR      37  28  70 S22       30.02F
BERTHOUD PASS  FAIR      34  23  64 W32G48    29.98F WCI  20
COTTONWOOD PAS FAIR      55  19  24 W12G25    29.92S
GUNNISON       NOT AVBL
KREMMLING      RAIN      52  43  71 W15G26    29.83R
LEADVILLE      FAIR      47  27  45 SE9G17    29.90F
MONARCH PASS   CLOUDY    41  21  45 W23G37    30.15S
SALIDA         FAIR      68  19  15 W15       29.87R
SUNLIGHT       PTSUNNY   45  25  45 SW13G28   29.96R
WILKERSON PASS FAIR      45  25  45 SW16G29   30.00S
$$

COZ069>075-251600-
...SAN LUIS VALLEY/SANGRE DE CRISTO MOUNTAINS...

CITY           SKY/WX    TMP DP  RH WIND       PRES   REMARKS
ALAMOSA        FAIR      67  23  19 W22G31    29.83S
DEL NORTE      FAIR      63  26  24 W15G21    29.86F
LA VETA PASS   FAIR      54  23  30 S21       30.10F
SAGUACHE       NOT AVBL
$$

COZ035-036-038>040-251600-
...NORTHERN COLORADO FRONT RANGE...

CITY           SKY/WX    TMP DP  RH WIND       PRES   REMARKS
DENVER INTL AP FAIR      73  41  31 S15       29.59F
DMNS CITY PARK   N/A     74  33  22 SW12G20   29.58S
AURORA         MOSUNNY   73  33  23 SW16      29.61F
FRONT RANGE AP MOSUNNY   73  41  31 S9        29.60F
ERIE MUNI ARPT FAIR      71  40  32 SW6       29.59R
BOULDER MUN AP FAIR      68  41  37 NW5       29.59S
CENTENNIAL     FAIR      71  33  24 S13       29.63S
BROOMFIELD     PTSUNNY   70  37  30 SW8       29.62R
FORT COLLINS   FAIR      66  45  46 VRB3G16   29.59R
LONGMONT       FAIR      67  46  47 CALM      29.60R
$$

COZ041-046-047-076>085-087-088-251600-
...PIKES PEAK/PALMER DIVIDE AND SOUTHERN FOOTHILLS...

CITY           SKY/WX    TMP DP  RH WIND       PRES   REMARKS
COLO. SPRINGS  FAIR      75  27  17 W15G22    29.68F
A. F. ACADEMY  FAIR      72  27  18 SW13G25   29.68F
SCHRIEVER AFB  FAIR      71  31  23 CALM      29.69F
CHEYENNE MTN   FAIR      69  23  17 S10G22    29.66S
ELLICOTT       FAIR     N/A N/A N/A W15       29.67S
FALCON         FAIR      70  28  20 W9        29.74S
FORT CARSON    FAIR      74  31  20 S10G22    29.65F
LIMON          FAIR      72  41  32 CALM      29.63R
MONUMENT HILL  FAIR      66  32  28 W12G18    29.74F
CANON CITY     NOT AVBL
WALSENBURG     FAIR      75  32  20 MISG      29.70F
TRINIDAD       FAIR      75  31  19 W14       29.71F
$$

COZ042>045-048>051-090-091-251600-
...NORTHEAST COLORADO...

CITY           SKY/WX    TMP DP  RH WIND       PRES   REMARKS
GREELEY ARPT   FAIR      65  49  56 SE8       29.57S
AKRON          FAIR      68  46  45 N13       29.57F
BURLINGTON     FAIR      71  48  43 N14       29.57F
WRAY           FAIR      70  48  46 NE9       29.51F
YUMA           FAIR      68  37  32 N13       29.56R
STERLING       FAIR      68  48  49 CALM      29.53S
HOLYOKE        NOT AVBL
FORT MORGAN    FAIR      67  45  45 CALM      29.57S
$$

COZ086-089-092>099-251600-
...SOUTHEAST COLORADO...

CITY           SKY/WX    TMP DP  RH WIND       PRES   REMARKS
PUEBLO         FAIR      74  41  30 SW3       29.61S
LA JUNTA       FAIR      74  46  36 W13       29.59S
LAMAR          FAIR      68  49  50 W10       29.55S
SPRINGFIELD      N/A     82  35  18 W23G33    29.58S
$$



USA.gov is the U.S. government's official web portal to all federal, state and local government web resources and services.